Tracking 34305 objects as of 7-Jun-2026
HD Live streaming from Space Station
objects crossing your sky now

STARLINK-2606

Track STARLINK-2606 now!
10-day predictions
STARLINK-2606 is classified as:


NORAD ID: 48386
Int'l Code: 2021-038AK
Perigee: 476.8 km
Apogee: 478.9 km
Inclination: 53.2 °
Period: 94.0 minutes
Semi major axis: 6848 km
RCS: Unknown
Launch date: May 4, 2021
Source: United States (US)
Launch site: AIR FORCE EASTERN TEST RANGE (AFETR)
Your satellite tracking list
Your tracking list is empty




NASA's NSSDC Master Catalog

Two Line Element Set (TLE):
1 48386U 21038AK  26158.08277454  .00003569  00000-0  12669-3 0  9992
2 48386  53.1629 289.7135 0001556  93.3596 266.7583 15.31709643280943
Source of the keplerian elements: AFSPC